AUA14GK LSZH-LOWW

Flight info

Callsign AUA14GK
Flight time 1h 8m
Altitude 34000
Route DEGES Z2 XEBIX N871 BADVI L725 INPUL DCT NEMAL NEMAL2W
Aircraft A320/M-SDE3FGHIRWY/LB1

Departure

Time 2026-05-03 20:19
Airport Zürich Airport (LSZH)

Arrival

Time 2026-05-03 21:27
Airport Vienna International Airport (LOWW)
Time Latitude Longitude Altitude Speed Heading
2026-05-03 20:15 47.45666 8.55474 1402 ft 7 kts 96°
2026-05-03 20:15 47.45659 8.55572 1406 ft 13 kts 96°
2026-05-03 20:15 47.45649 8.55709 1405 ft 13 kts 95°
2026-05-03 20:15 47.45639 8.55858 1408 ft 15 kts 96°
2026-05-03 20:16 47.45628 8.56020 1410 ft 17 kts 96°
2026-05-03 20:16 47.45616 8.56188 1415 ft 11 kts 95°
2026-05-03 20:16 47.45643 8.56268 1418 ft 9 kts 15°
2026-05-03 20:16 47.45723 8.56279 1414 ft 15 kts
2026-05-03 20:17 47.45826 8.56295 1415 ft 16 kts
2026-05-03 20:17 47.45947 8.56314 1413 ft 19 kts
2026-05-03 20:17 47.46067 8.56335 1411 ft 19 kts
2026-05-03 20:17 47.46173 8.56349 1412 ft 16 kts
2026-05-03 20:18 47.46238 8.56299 1408 ft 8 kts 316°
2026-05-03 20:18 47.46360 8.56130 1409 ft 58 kts 317°
2026-05-03 20:18 47.46842 8.55477 1392 ft 127 kts 317°
2026-05-03 20:18 47.47623 8.54422 1528 ft 165 kts 317°
2026-05-03 20:19 47.48475 8.53253 2219 ft 168 kts 316°
2026-05-03 20:19 47.49363 8.52094 2871 ft 178 kts 324°
2026-05-03 20:19 47.50510 8.51144 3236 ft 200 kts 330°
2026-05-03 20:19 47.51793 8.50081 3665 ft 220 kts 329°
2026-05-03 20:20 47.53248 8.49439 4395 ft 229 kts
2026-05-03 20:20 47.54722 8.50274 5212 ft 233 kts 39°
2026-05-03 20:20 47.55811 8.52150 5760 ft 252 kts 64°
2026-05-03 20:20 47.56163 8.54754 6232 ft 270 kts 99°
2026-05-03 20:21 47.55659 8.57451 7047 ft 274 kts 110°
2026-05-03 20:21 47.55044 8.60142 7949 ft 278 kts 111°
2026-05-03 20:21 47.54412 8.62875 8838 ft 282 kts 111°
2026-05-03 20:21 47.53781 8.65610 9737 ft 287 kts 112°
2026-05-03 20:22 47.53133 8.68436 10425 ft 299 kts 112°
2026-05-03 20:22 47.52438 8.71466 10747 ft 322 kts 111°
2026-05-03 20:22 47.51706 8.74659 11353 ft 332 kts 111°
2026-05-03 20:22 47.50960 8.77934 12093 ft 339 kts 111°
2026-05-03 20:23 47.50203 8.81259 12843 ft 345 kts 111°
2026-05-03 20:23 47.49433 8.84648 13586 ft 351 kts 111°
2026-05-03 20:23 47.48649 8.88085 14262 ft 356 kts 111°
2026-05-03 20:23 47.47859 8.91529 14944 ft 360 kts 111°
2026-05-03 20:24 47.47053 8.95036 15640 ft 363 kts 111°
2026-05-03 20:24 47.46236 8.98584 16330 ft 367 kts 111°
2026-05-03 20:24 47.45408 9.02185 17011 ft 371 kts 111°
2026-05-03 20:24 47.44573 9.05797 17683 ft 375 kts 111°
2026-05-03 20:25 47.43717 9.09483 18345 ft 379 kts 111°
2026-05-03 20:25 47.42862 9.13176 18934 ft 382 kts 111°
2026-05-03 20:25 47.42105 9.16899 19522 ft 387 kts 104°
2026-05-03 20:25 47.41790 9.20872 20087 ft 393 kts 92°
2026-05-03 20:26 47.41990 9.24930 20691 ft 399 kts 81°
2026-05-03 20:26 47.42588 9.28943 21287 ft 402 kts 78°
2026-05-03 20:26 47.43209 9.32986 21878 ft 405 kts 78°
2026-05-03 20:26 47.43823 9.37062 22462 ft 409 kts 79°
2026-05-03 20:27 47.44438 9.41183 23044 ft 412 kts 79°
2026-05-03 20:27 47.45056 9.45335 23614 ft 415 kts 79°
2026-05-03 20:27 47.45681 9.49523 24085 ft 419 kts 79°
2026-05-03 20:27 47.46303 9.53677 24540 ft 422 kts 79°
2026-05-03 20:28 47.46901 9.57936 24981 ft 424 kts 83°
2026-05-03 20:28 47.47113 9.62283 25425 ft 425 kts 93°
2026-05-03 20:28 47.46922 9.66629 25856 ft 426 kts 97°
2026-05-03 20:28 47.46677 9.71021 26283 ft 429 kts 97°
2026-05-03 20:29 47.46434 9.75426 26701 ft 432 kts 97°
2026-05-03 20:29 47.46190 9.79871 27127 ft 435 kts 97°
2026-05-03 20:29 47.45943 9.84331 27528 ft 438 kts 97°
2026-05-03 20:29 47.45696 9.88769 27927 ft 440 kts 97°
2026-05-03 20:30 47.45442 9.93283 28335 ft 443 kts 97°
2026-05-03 20:30 47.45183 9.97832 28733 ft 445 kts 97°
2026-05-03 20:30 47.44923 10.02393 29118 ft 447 kts 97°
2026-05-03 20:30 47.44656 10.06997 29485 ft 450 kts 97°
2026-05-03 20:31 47.44389 10.11606 29845 ft 453 kts 97°
2026-05-03 20:31 47.44119 10.16260 30215 ft 455 kts 97°
2026-05-03 20:31 47.43675 10.20823 30508 ft 455 kts 103°
2026-05-03 20:31 47.43053 10.25476 30828 ft 457 kts 103°
2026-05-03 20:32 47.42440 10.30023 31143 ft 459 kts 103°
2026-05-03 20:32 47.41812 10.34647 31444 ft 460 kts 103°
2026-05-03 20:32 47.41182 10.39287 31735 ft 461 kts 103°
2026-05-03 20:32 47.40763 10.43986 32130 ft 462 kts 94°
2026-05-03 20:33 47.40839 10.48715 32526 ft 462 kts 85°
2026-05-03 20:33 47.41413 10.53386 32911 ft 462 kts 76°
2026-05-03 20:33 47.42431 10.57871 33325 ft 461 kts 70°
2026-05-03 20:33 47.43517 10.62253 33739 ft 459 kts 71°
2026-05-03 20:34 47.44606 10.66689 34021 ft 458 kts 71°
2026-05-03 20:34 47.46719 10.75373 34074 ft 441 kts 71°
2026-05-03 20:35 47.48785 10.83874 34071 ft 438 kts 71°
2026-05-03 20:35 47.50839 10.92353 34064 ft 438 kts 71°
2026-05-03 20:36 47.52867 11.00785 34042 ft 438 kts 71°
2026-05-03 20:36 47.54906 11.09280 34029 ft 438 kts 71°
2026-05-03 20:37 47.56940 11.17784 34006 ft 438 kts 71°
2026-05-03 20:37 47.58968 11.26292 33993 ft 438 kts 71°
2026-05-03 20:38 47.60978 11.34752 33982 ft 438 kts 71°
2026-05-03 20:38 47.62977 11.43272 33973 ft 438 kts 72°
2026-05-03 20:39 47.64763 11.51903 33973 ft 438 kts 74°
2026-05-03 20:39 47.66458 11.60574 33969 ft 438 kts 74°
2026-05-03 20:40 47.68194 11.69240 33965 ft 438 kts 73°
2026-05-03 20:40 47.69941 11.77824 33961 ft 438 kts 73°
2026-05-03 20:41 47.71646 11.86498 33962 ft 438 kts 74°
2026-05-03 20:41 47.73254 11.95202 33960 ft 437 kts 76°
2026-05-03 20:42 47.74577 12.03941 33958 ft 437 kts 79°
2026-05-03 20:42 47.75727 12.12834 33953 ft 437 kts 79°
2026-05-03 20:43 47.76896 12.21686 33955 ft 437 kts 78°
2026-05-03 20:43 47.78123 12.30533 33947 ft 437 kts 78°
2026-05-03 20:44 47.79343 12.39311 33948 ft 437 kts 78°
2026-05-03 20:44 47.80555 12.48181 33942 ft 437 kts 78°
2026-05-03 20:45 47.81752 12.57039 33945 ft 436 kts 78°
2026-05-03 20:45 47.82939 12.65877 33948 ft 436 kts 78°
2026-05-03 20:46 47.84103 12.74734 33955 ft 436 kts 79°
2026-05-03 20:46 47.85100 12.83539 33955 ft 435 kts 81°
2026-05-03 20:47 47.85980 12.92435 33966 ft 434 kts 82°
2026-05-03 20:47 47.86865 13.01321 33961 ft 433 kts 81°
2026-05-03 20:48 47.87780 13.10184 33968 ft 432 kts 81°
2026-05-03 20:48 47.88684 13.18963 33957 ft 431 kts 81°
2026-05-03 20:49 47.89587 13.27734 33961 ft 431 kts 81°
2026-05-03 20:49 47.90487 13.36614 33950 ft 430 kts 81°
2026-05-03 20:50 47.91360 13.45411 33938 ft 429 kts 81°
2026-05-03 20:50 47.91796 13.54211 33943 ft 429 kts 90°
2026-05-03 20:51 47.91754 13.63094 33938 ft 428 kts 90°
2026-05-03 20:51 47.91705 13.71959 33562 ft 425 kts 90°
2026-05-03 20:51 47.91678 13.76357 33292 ft 423 kts 90°
2026-05-03 20:52 47.91649 13.80729 33033 ft 421 kts 90°
2026-05-03 20:52 47.91621 13.85071 32624 ft 418 kts 90°
2026-05-03 20:52 47.91597 13.89343 32194 ft 417 kts 90°
2026-05-03 20:52 47.91572 13.93654 31725 ft 414 kts 90°
2026-05-03 20:53 47.91546 13.97933 31302 ft 412 kts 90°
2026-05-03 20:53 47.91517 14.02196 30864 ft 410 kts 90°
2026-05-03 20:53 47.91483 14.06434 30426 ft 408 kts 90°
2026-05-03 20:53 47.91446 14.10651 29983 ft 406 kts 90°
2026-05-03 20:54 47.91409 14.14841 29508 ft 403 kts 90°
2026-05-03 20:54 47.91333 14.23076 28661 ft 397 kts 90°
2026-05-03 20:54 47.91290 14.27148 28244 ft 395 kts 91°
2026-05-03 20:55 47.91246 14.31257 27821 ft 392 kts 91°
2026-05-03 20:55 47.91204 14.35306 27405 ft 389 kts 91°
2026-05-03 20:55 47.91160 14.39328 26988 ft 387 kts 91°
2026-05-03 20:55 47.91113 14.43326 26576 ft 384 kts 91°
2026-05-03 20:56 47.91066 14.47235 26180 ft 382 kts 91°
2026-05-03 20:56 47.91015 14.51199 25773 ft 379 kts 91°
2026-05-03 20:56 47.90964 14.55096 25370 ft 377 kts 91°
2026-05-03 20:56 47.90916 14.58978 24972 ft 374 kts 91°
2026-05-03 20:57 47.90870 14.62818 24576 ft 371 kts 91°
2026-05-03 20:57 47.90821 14.66673 24183 ft 369 kts 92°
2026-05-03 20:57 47.90769 14.70427 23800 ft 366 kts 92°
2026-05-03 20:57 47.90713 14.74265 23373 ft 364 kts 92°
2026-05-03 20:58 47.90658 14.77985 22973 ft 361 kts 92°
2026-05-03 20:58 47.90602 14.81735 22594 ft 358 kts 92°
2026-05-03 20:58 47.90548 14.85355 22223 ft 356 kts 92°
2026-05-03 20:58 47.90493 14.89059 21840 ft 354 kts 92°
2026-05-03 20:59 47.90437 14.92724 21466 ft 352 kts 93°
2026-05-03 20:59 47.90380 14.96352 21092 ft 350 kts 93°
2026-05-03 20:59 47.90322 14.99972 20721 ft 348 kts 93°
2026-05-03 20:59 47.90266 15.03566 20351 ft 346 kts 93°
2026-05-03 21:00 47.90207 15.07142 19971 ft 344 kts 93°
2026-05-03 21:00 47.90167 15.09495 19739 ft 343 kts 93°
2026-05-03 21:00 47.90083 15.14182 19260 ft 340 kts 93°
2026-05-03 21:00 47.90017 15.17691 18898 ft 338 kts 93°
2026-05-03 21:01 47.89952 15.21179 18542 ft 336 kts 93°
2026-05-03 21:01 47.89885 15.24652 18167 ft 334 kts 93°
2026-05-03 21:01 47.89818 15.28096 17797 ft 332 kts 94°
2026-05-03 21:01 47.89753 15.31519 17441 ft 330 kts 94°
2026-05-03 21:02 47.89688 15.34929 17107 ft 328 kts 94°
2026-05-03 21:02 47.89624 15.38266 17032 ft 327 kts 94°
2026-05-03 21:02 47.89561 15.41652 17051 ft 327 kts 94°
2026-05-03 21:02 47.89496 15.45039 17037 ft 327 kts 94°
2026-05-03 21:03 47.89350 15.48442 16384 ft 334 kts 102°
2026-05-03 21:03 47.88813 15.51787 16100 ft 327 kts 106°
2026-05-03 21:03 47.88262 15.55042 15999 ft 322 kts 107°
2026-05-03 21:03 47.87726 15.58261 15838 ft 319 kts 106°
2026-05-03 21:04 47.87200 15.61435 15664 ft 318 kts 106°
2026-05-03 21:04 47.86673 15.64608 15489 ft 317 kts 106°
2026-05-03 21:04 47.86145 15.67782 15317 ft 316 kts 106°
2026-05-03 21:04 47.85622 15.70907 15146 ft 315 kts 106°
2026-05-03 21:05 47.85092 15.74082 14978 ft 314 kts 106°
2026-05-03 21:05 47.84559 15.77253 14802 ft 313 kts 106°
2026-05-03 21:05 47.84028 15.80394 14638 ft 312 kts 107°
2026-05-03 21:05 47.83497 15.83516 14466 ft 311 kts 106°
2026-05-03 21:06 47.82970 15.86631 14296 ft 310 kts 106°
2026-05-03 21:06 47.82457 15.89682 14126 ft 309 kts 107°
2026-05-03 21:06 47.81930 15.92790 13968 ft 308 kts 106°
2026-05-03 21:06 47.81403 15.95874 13786 ft 307 kts 107°
2026-05-03 21:07 47.80879 15.98936 13622 ft 306 kts 106°
2026-05-03 21:07 47.80363 16.01956 13451 ft 305 kts 106°
2026-05-03 21:07 47.79832 16.05054 13282 ft 305 kts 107°
2026-05-03 21:07 47.79311 16.08094 13114 ft 304 kts 106°
2026-05-03 21:08 47.78784 16.11157 12944 ft 303 kts 106°
2026-05-03 21:08 47.78260 16.14188 12783 ft 302 kts 106°
2026-05-03 21:08 47.77738 16.17206 12616 ft 301 kts 106°
2026-05-03 21:08 47.77280 16.20201 12453 ft 302 kts 98°
2026-05-03 21:09 47.77296 16.23319 12286 ft 303 kts 83°
2026-05-03 21:09 47.77875 16.26330 12121 ft 305 kts 67°
2026-05-03 21:09 47.78905 16.29098 11955 ft 306 kts 61°
2026-05-03 21:09 47.79978 16.31826 11791 ft 305 kts 61°
2026-05-03 21:10 47.81043 16.34548 11617 ft 305 kts 61°
2026-05-03 21:10 47.82107 16.37269 11455 ft 304 kts 61°
2026-05-03 21:10 47.83166 16.39979 11290 ft 303 kts 61°
2026-05-03 21:10 47.84209 16.42653 11129 ft 302 kts 62°
2026-05-03 21:11 47.85262 16.45359 10961 ft 301 kts 61°
2026-05-03 21:11 47.86310 16.48051 10796 ft 300 kts 62°
2026-05-03 21:11 47.87357 16.50740 10632 ft 300 kts 62°
2026-05-03 21:11 47.88401 16.53421 10464 ft 299 kts 62°
2026-05-03 21:12 47.89442 16.56098 10253 ft 298 kts 62°
2026-05-03 21:12 47.90475 16.58761 10060 ft 297 kts 62°
2026-05-03 21:12 47.91504 16.61416 9880 ft 296 kts 62°
2026-05-03 21:12 47.92511 16.64019 9717 ft 295 kts 62°
2026-05-03 21:13 47.93542 16.66685 9543 ft 294 kts 62°
2026-05-03 21:13 47.94563 16.69321 9382 ft 294 kts 62°
2026-05-03 21:13 47.95584 16.71966 9211 ft 293 kts 62°
2026-05-03 21:13 47.96597 16.74599 9050 ft 293 kts 62°
2026-05-03 21:14 47.97613 16.77235 8885 ft 292 kts 62°
2026-05-03 21:14 47.98815 16.79663 8719 ft 294 kts 43°
2026-05-03 21:14 48.00597 16.81134 8554 ft 296 kts 15°
2026-05-03 21:14 48.02633 16.81260 8379 ft 295 kts 347°
2026-05-03 21:15 48.04506 16.80152 8212 ft 294 kts 332°
2026-05-03 21:15 48.06328 16.78751 8036 ft 295 kts 331°
2026-05-03 21:15 48.08147 16.77339 7871 ft 295 kts 331°
2026-05-03 21:15 48.09967 16.75929 7689 ft 294 kts 331°
2026-05-03 21:16 48.11754 16.74549 7518 ft 294 kts 331°
2026-05-03 21:16 48.13599 16.73129 7351 ft 293 kts 332°
2026-05-03 21:16 48.15415 16.71731 7178 ft 293 kts 331°
2026-05-03 21:16 48.17198 16.70352 7014 ft 292 kts 331°
2026-05-03 21:17 48.19004 16.68952 6855 ft 292 kts 331°
2026-05-03 21:17 48.20219 16.68009 6729 ft 292 kts 331°
2026-05-03 21:17 48.22648 16.66281 6512 ft 292 kts 340°
2026-05-03 21:17 48.24598 16.65449 6339 ft 288 kts 343°
2026-05-03 21:18 48.26489 16.64661 6158 ft 277 kts 343°
2026-05-03 21:18 48.28308 16.63899 5979 ft 267 kts 343°
2026-05-03 21:18 48.30097 16.63145 5805 ft 268 kts 343°
2026-05-03 21:18 48.31871 16.62392 5633 ft 268 kts 343°
2026-05-03 21:19 48.33662 16.61631 5458 ft 268 kts 343°
2026-05-03 21:19 48.35454 16.60875 5287 ft 268 kts 343°
2026-05-03 21:19 48.37236 16.60065 5121 ft 266 kts 334°
2026-05-03 21:19 48.38619 16.58349 5009 ft 257 kts 297°
2026-05-03 21:20 48.39143 16.55910 4994 ft 236 kts 275°
2026-05-03 21:20 48.39299 16.53546 4993 ft 222 kts 268°
2026-05-03 21:20 48.39358 16.51253 4999 ft 217 kts 264°
2026-05-03 21:20 48.38967 16.49183 4994 ft 206 kts 231°
2026-05-03 21:21 48.37927 16.47787 4996 ft 200 kts 202°
2026-05-03 21:21 48.36580 16.47411 4998 ft 199 kts 173°
2026-05-03 21:21 48.35230 16.47905 4999 ft 201 kts 165°
2026-05-03 21:21 48.33913 16.48481 4945 ft 202 kts 165°
2026-05-03 21:22 48.32535 16.49075 4735 ft 201 kts 165°
2026-05-03 21:22 48.31199 16.49647 4485 ft 199 kts 166°
2026-05-03 21:22 48.29884 16.50208 4232 ft 197 kts 166°
2026-05-03 21:22 48.28584 16.50762 3976 ft 196 kts 166°
2026-05-03 21:23 48.27267 16.51323 3716 ft 194 kts 166°
2026-05-03 21:23 48.25988 16.51869 3482 ft 185 kts 166°
2026-05-03 21:23 48.24797 16.52376 3234 ft 170 kts 166°
2026-05-03 21:23 48.23707 16.52840 3013 ft 156 kts 166°
2026-05-03 21:24 48.22696 16.53270 2809 ft 145 kts 166°
2026-05-03 21:24 48.21758 16.53669 2626 ft 136 kts 166°
2026-05-03 21:24 48.20862 16.54048 2466 ft 132 kts 166°
2026-05-03 21:24 48.19985 16.54421 2284 ft 130 kts 165°
2026-05-03 21:25 48.19125 16.54785 2111 ft 130 kts 165°
2026-05-03 21:25 48.18260 16.55152 1932 ft 129 kts 165°
2026-05-03 21:25 48.17396 16.55519 1764 ft 130 kts 163°
2026-05-03 21:25 48.16526 16.55888 1590 ft 130 kts 165°
2026-05-03 21:26 48.15660 16.56255 1400 ft 131 kts 165°
2026-05-03 21:26 48.14783 16.56627 1227 ft 130 kts 163°
2026-05-03 21:26 48.13923 16.56989 1057 ft 128 kts 163°
2026-05-03 21:26 48.13065 16.57350 872 ft 128 kts 162°
2026-05-03 21:27 48.12220 16.57707 698 ft 127 kts 163°
2026-05-03 21:27 48.11381 16.58062 617 ft 118 kts 162°
2026-05-03 21:27 48.10736 16.58343 620 ft 73 kts 164°
2026-05-03 21:27 48.10412 16.58468 612 ft 32 kts 175°
2026-05-03 21:28 48.10223 16.58435 617 ft 16 kts 194°
2026-05-03 21:28 48.10122 16.58380 622 ft 10 kts 224°
2026-05-03 21:28 48.10147 16.58313 610 ft 9 kts 338°
2026-05-03 21:28 48.10226 16.58279 618 ft 12 kts 344°
2026-05-03 21:29 48.10317 16.58240 621 ft 18 kts 343°
2026-05-03 21:29 48.10429 16.58194 616 ft 16 kts 344°
2026-05-03 21:29 48.10536 16.58148 621 ft 15 kts 345°
2026-05-03 21:29 48.10636 16.58106 608 ft 14 kts 344°
2026-05-03 21:30 48.10729 16.58066 617 ft 14 kts 343°
2026-05-03 21:30 48.10822 16.58027 613 ft 15 kts 344°
2026-05-03 21:30 48.10921 16.57980 608 ft 17 kts 333°
2026-05-03 21:30 48.11012 16.57847 608 ft 18 kts 313°
2026-05-03 21:31 48.11072 16.57694 619 ft 17 kts 296°
2026-05-03 21:31 48.11121 16.57544 611 ft 15 kts 296°
2026-05-03 21:31 48.11165 16.57406 613 ft 14 kts 297°
2026-05-03 21:31 48.11210 16.57270 610 ft 17 kts 296°
2026-05-03 21:32 48.11264 16.57104 617 ft 18 kts 295°
2026-05-03 21:32 48.11316 16.56944 613 ft 17 kts 296°
2026-05-03 21:32 48.11373 16.56821 612 ft 13 kts 339°
2026-05-03 21:32 48.11456 16.56863 611 ft 13 kts 25°
2026-05-03 21:33 48.11529 16.56915 608 ft 10 kts 19°
2026-05-03 21:33 48.11583 16.56909 618 ft 6 kts 349°
2026-05-03 21:33 48.11621 16.56928 618 ft 6 kts 26°
2026-05-03 21:33 48.11643 16.56945 611 ft 2 kts 25°
2026-05-03 21:34 48.11655 16.56953 614 ft 2 kts 26°
2026-05-03 21:34 48.11657 16.56954 615 ft 0 kts 26°